Regional Weather Roundup
Issued by NWS Upton, NY

Current Version | Previous Version | Graphics & Text | Print | Product List | Glossary Off
Versions: 1 2 3 4 5 6 7 8 9 10 11 12 13 14 15 16 17 18 19 20 21 22 23 24 25 26 27

000
ASUS41 KOKX 291009
RWROKX

REGIONAL WEATHER ROUNDUP
NATIONAL WEATHER SERVICE NEW YORK NY
600 AM EDT SAT APR 29 2017

NOTE: "FAIR" INDICATES FEW OR NO CLOUDS BELOW 12,000 FEET WITH NO
SIGNIFICANT WEATHER AND/OR OBSTRUCTIONS TO VISIBILITY.

NYZ071-072-176-178-NJZ106-104-291100-
NEW YORK CITY METRO AREA

CITY           SKY/WX    TMP DP  RH WIND       PRES   REMARKS
Central Park   CLOUDY    65  64  97 CALM      29.98F FOG
Wall St Helipt CLOUDY    64  62  93 W5        29.99F
Bronx Bot Gard   N/A     64  61  88 W1        29.96F
LaGuardia APRT TSTM      69  63  81 S9        29.96F
Kennedy INTL   TSTM      60  59  96 SW13G26   30.01R FOG
Breezy Point     N/A     55 N/A N/A S15         N/A
Newark/Liberty LGT RAIN  66  63  90 NW10      29.97F
Teterboro      CLOUDY    64  61  90 W6        29.95F THUNDER
$$

NYZ177-179-078>081-291100-
LONG ISLAND NEW YORK

CITY           SKY/WX    TMP DP  RH WIND       PRES   REMARKS
Jones Beach      N/A     59 N/A N/A S17G28      N/A
Matinecock PT  NOT AVBL
Farmingdale    LGT RAIN  59  58  96 E5        29.96F
MacArthur/ISP  LGT RAIN  59  58  96 S6        29.99F FOG
Shirley        CLOUDY    57  56  96 S8        30.00F
Mt Sinai Harb    N/A     61 N/A N/A S8          N/A
Westhampton    CLOUDY    54  53  97 S7        30.02F FOG
East Hampton   CLOUDY    54  53  98 S5        29.99F FOG
Montauk          N/A     53  52  96 SE6       30.00F
$$

NYZ052-065-067-291100-
HUDSON VALLEY

CITY           SKY/WX    TMP DP  RH WIND       PRES   REMARKS
White Plains   CLOUDY    64  59  83 S6        29.96F
Larchmont Harb   N/A     57 N/A N/A S2          N/A
Croton O-T Hud   N/A     59 N/A N/A NE5         N/A
Newburgh       PTCLDY    63  54  72 SW7       29.99F
Montgomery     CLOUDY    58  52  80 SW6       29.98R
Poughkeepsie   CLOUDY    61  50  67 SW3       29.97F
Albany         CLOUDY    63  52  67 N7        29.96S
$$

NJZ001-105-106-008-010-013-015-019>022-104-291100-
NEW JERSEY

CITY           SKY/WX    TMP DP  RH WIND       PRES   REMARKS
Newark/Liberty LGT RAIN  66  63  90 NW10      29.97F
Teterboro      CLOUDY    64  61  90 W6        29.95F THUNDER
Caldwell       CLOUDY    61  58  90 S3        29.97F
Somerville     CLOUDY    59  58  96 CALM      29.97F
Linden           N/A     65  62  90 W5        29.99F
Perth Amboy      N/A     63 N/A N/A SE5         N/A
Sussex         CLOUDY    58  57  97 CALM      30.00R
Andover          N/A     58  57  97 CALM      29.99R
Trenton        CLOUDY    65  64  97 SW3       29.99R
Millville      MOCLDY    71  71 100 VRB7      29.98F FOG
Atlantic City  CLOUDY    70  67  90 S13       29.98F
Wrightstown    CLOUDY    67  66  96 N6        29.98R
Toms River     CLOUDY    70  67  90 SW8       29.98F
Belmar         CLOUDY    66  64  94 N6        30.02R
$$

PAZ047>061-062-071-291100-
EASTERN PENNSYLVANIA

CITY           SKY/WX    TMP DP  RH WIND       PRES   REMARKS
Philadelphia   CLOUDY    68  66  93 N6        29.97F
Allentown      CLOUDY    60  56  86 NW3       30.00R
Scranton       CLOUDY    57  55  93 CALM      29.98S
$$

CTZ002-004>006-009-010-012-RIZ004-006-007-MAZ004-011-015-291100-
SOUTHERN NEW ENGLAND
 IN CT

CITY           SKY/WX    TMP DP  RH WIND       PRES   REMARKS
Bradley INTL   CLOUDY    62  54  74 S7        29.96F
Hartford       CLOUDY    64  52  64 SW5       29.96F
Danbury        CLOUDY    58  56  93 SW5       30.00F
Wtrbury/Oxford CLOUDY    63  45  51 CALM      30.00S
Bridgeport     LGT RAIN  60  53  77 N7        29.98F
Meriden        CLOUDY    60  55  83 CALM      29.98F
New Haven      CLOUDY    58  55  90 CALM      29.97F
Chester          N/A     64  54  68 SW5       30.00
Groton         CLOUDY    53  50  89 N5        29.99F
Wilimantic     CLOUDY    60  56  86 CALM      29.98F

 IN RI

CITY           SKY/WX    TMP DP  RH WIND       PRES   REMARKS
Providence     CLOUDY    61  53  75 CALM      29.98F
Block Island   FOG       51  51 100 S13       29.99F VSB 1/2
Westerly       CLOUDY    55  52  89 SE3       30.00F
 IN MA

CITY           SKY/WX    TMP DP  RH WIND       PRES   REMARKS
Boston         CLOUDY    63  55  75 SW6       29.98F
Worcester      CLOUDY    61  51  70 SW7       29.99F
Westfield      CLOUDY    60  56  86 NW5       29.96F
Provincetown   CLOUDY    54  51  90 S9        30.00F
Nantucket      FOG       51  50  96 SW6       30.01F VSB 1/2
$$

ANZ330-335-338-340-345-350-353-355-291100-
COASTAL MARINE OBSERVATIONS


STATION/POSITION TIME  SKY/WX   TEMP    WIND        PRES    VSBY  WAVE
                                AIR SEA DIR/SP/G                  HT/PER
                 (UTC)          (F)     (DEG/KT/KT) (MB)    (MI)  (FT/S)
NY HARB ENTRANCE 0850            63 51  210/  4/  6 1015.9          3/ 8
20 S FIRE ISLAND 0950            54 48  160/  6/  6 1015.8          4/ 8
GREAT SOUTH BAY  NOT AVBL
23 SSW MONTAUK P 0850            49 47              1018.0          4/ 9
15 E BARNEGAT LI 0930               54                N/A           4/ 8
HUDSON CANYON    0850            53 49  200/ 12/ 12 1017.4          4/ 8
KINGS POINT      0948            65 51  170/  7/  8 1014.1
EXECUTION ROCKS  NOT AVBL
CENTRAL LI SOUND 0945            51     140/  6/  8   N/A           1
EASTERN LI SOUND NOT AVBL
ROBBINS REEF     0948            69     210/ 15/ 18 1015.0
$$


>>>>>>>>>>>>>>>>>>>>>>>>>>>> KEY <<<<<<<<<<<<<<<<<<<<<<<<<<<
>                                                          <
>     SKY/WX - Sky Condition/Present Weather               <
>     TMP    - Temperature in Fahrenheit                   <
>     DP     - Dew Point in Fahrenheit                     <
>     RH     - Relative Humidity in Percent                <
>     WIND   - Direction (from) and Speed in MPH           <
>     PRES   - Mean Sea Level Pressure (inches of Hg)      <
>     WCI    - Wind Chill Index                            <
>     VSB    - VISIBILITY IN MILES                         <
>     HX     - HEAT INDEX                                  <
>     TC     - TEMPERATURE IN CELSIUS                      <
>     VRB    - VARIABLE WIND DIRECTION                     <
>                                                          <
>>>>>>>>>>>>>>>>>>>>>>>>>>>> KEY <<<<<<<<<<<<<<<<<<<<<<<<<<<




USA.gov is the U.S. government's official web portal to all federal, state and local government web resources and services.